DW7589 Weather Reports


time (UTC)temp
F
wind
direction
speed
knots
gust
knots
rain 1hr
in
rain 24hr
in
rain mn
in
humidity
%
barometer
mb
20260905220237 100 86 1.7 4.3 0.00 0.00 0.00 36 1010.0
20260905215237 100 152 1.7 6.1 0.00 0.00 0.00 36 1010.0
20260905213237 100 137 1.7 5.2 0.00 0.00 0.00 36 1010.4
20260905212738 100 131 1.7 5.2 0.00 0.00 0.00 36 1010.5
20260905212239 100 134 1.7 5.2 0.00 0.00 0.00 37 1010.6
20260905211737 100 145 1.7 5.2 0.00 0.00 0.00 36 1010.8
20260905210737 99 144 2.6 6.1 0.00 0.00 0.00 38 1010.8
20260905210237 99 148 2.6 6.1 0.00 0.00 0.00 37 1010.8
20260905205737 100 149 1.7 4.3 0.00 0.00 0.00 38 1010.8
20260905205237 100 143 0.9 4.3 0.00 0.00 0.00 37 1010.9
20260905204738 99 146 1.7 5.2 0.00 0.00 0.00 39 1011.0
20260905204237 99 142 1.7 5.2 0.00 0.00 0.00 38 1011.1
20260905203738 100 125 1.7 4.3 0.00 0.00 0.00 37 1011.2
20260905202737 99 146 1.7 4.3 0.00 0.00 0.00 38 1011.3
20260905202237 98 151 1.7 4.3 0.00 0.00 0.00 39 1011.3
20260905201737 99 126 1.7 6.1 0.00 0.00 0.00 40 1011.5
20260905201237 99 122 2.6 6.1 0.00 0.00 0.00 40 1011.5
20260905200236 98 148 2.6 7.8 0.00 0.00 0.00 40 1011.6
20260905194737 97 120 2.6 7.0 0.00 0.00 0.00 42 1012.0
20260905194237 98 234 2.6 7.0 0.00 0.00 0.00 42 1011.9
20260905193737 98 233 2.6 7.0 0.00 0.00 0.00 41 1012.1
20260905193237 98 178 1.7 4.3 0.00 0.00 0.00 42 1012.2
20260905192737 98 191 1.7 3.5 0.00 0.00 0.00 41 1012.2
20260905191737 98 172 2.6 7.0 0.00 0.00 0.00 42 1012.4
20260905190737 97 155 1.7 4.3 0.00 0.00 0.00 43 1012.6
20260905190238 97 188 1.7 4.3 0.00 0.00 0.00 44 1012.6
20260905185737 97 182 1.7 4.3 0.00 0.00 0.00 44 1012.8
20260905184737 97 226 2.6 7.8 0.00 0.00 0.00 45 1013.0
20260905183737 96 157 1.7 6.1 0.00 0.00 0.00 47 1013.2
20260905183238 96 153 1.7 6.1 0.00 0.00 0.00 46 1013.2
20260905182737 96 148 1.7 6.1 0.00 0.00 0.00 46 1013.3
20260905182238 96 150 1.7 6.1 0.00 0.00 0.00 45 1013.4
20260905181737 96 131 2.6 6.1 0.00 0.00 0.00 45 1013.5
20260905181238 96 148 2.6 6.1 0.00 0.00 0.00 47 1013.5
20260905180737 95 159 2.6 7.0 0.00 0.00 0.00 47 1013.7
20260905175737 96 148 1.7 6.1 0.00 0.00 0.00 47 1013.9
20260905175237 95 150 1.7 5.2 0.00 0.00 0.00 47 1013.9
20260905174739 95 166 1.7 5.2 0.00 0.00 0.00 48 1014.0
20260905174238 95 156 1.7 5.2 0.00 0.00 0.00 48 1014.1
20260905173738 95 124 2.6 4.3 0.00 0.00 0.00 47 1014.2
20260905172737 95 146 1.7 6.1 0.00 0.00 0.00 46 1014.2
20260905172237 95 159 1.7 5.2 0.00 0.00 0.00 46 1014.3
20260905171737 95 191 1.7 6.1 0.00 0.00 0.00 46 1014.3
20260905170238 93 158 2.6 6.1 0.00 0.00 0.00 48 1014.4
20260905165237 94 162 1.7 5.2 0.00 0.00 0.00 49 1014.5
20260905164237 93 173 1.7 6.1 0.00 0.00 0.00 51 1014.5
20260905163738 93 175 1.7 6.1 0.00 0.00 0.00 51 1014.5
20260905163238 92 181 1.7 6.1 0.00 0.00 0.00 51 1014.5
20260905162737 93 181 1.7 6.1 0.00 0.00 0.00 51 1014.5
20260905162237 92 158 1.7 5.2 0.00 0.00 0.00 51 1014.5
20260905161737 92 154 1.7 4.3 0.00 0.00 0.00 54 1014.6
20260905161238 92 181 1.7 5.2 0.00 0.00 0.00 54 1014.7
20260905160738 92 202 1.7 5.2 0.00 0.00 0.00 55 1014.6
20260905160237 91 182 1.7 4.3 0.00 0.00 0.00 56 1014.6
20260905155738 91 198 1.7 7.0 0.00 0.00 0.00 57 1014.5
20260905155237 90 222 2.6 7.0 0.00 0.00 0.00 58 1014.5
20260905154738 90 202 1.7 6.1 0.00 0.00 0.00 60 1014.6
20260905153737 89 160 1.7 4.3 0.00 0.00 0.00 61 1014.6
20260905153238 89 171 1.7 4.3 0.00 0.00 0.00 62 1014.5
20260905152737 89 211 1.7 5.2 0.00 0.00 0.00 62 1014.6
20260905152238 89 208 1.7 5.2 0.00 0.00 0.00 63 1014.7
20260905151737 88 211 1.7 7.0 0.00 0.00 0.00 64 1014.7
20260905151238 88 226 1.7 7.0 0.00 0.00 0.00 65 1014.7
20260905150737 88 228 1.7 6.1 0.00 0.00 0.00 66 1014.8
20260905150238 87 222 1.7 6.1 0.00 0.00 0.00 68 1014.7
20260905145737 87 171 0.9 5.2 0.00 0.00 0.00 70 1014.8
20260905145238 86 183 0.9 4.3 0.00 0.00 0.00 71 1014.7
20260905144737 86 203 0.9 4.3 0.00 0.00 0.00 71 1014.6
20260905144238 85 181 0.9 2.6 0.00 0.00 0.00 73 1014.6
20260905143737 85 176 0.9 2.6 0.00 0.00 0.00 74 1014.6
20260905143238 84 204 0.9 4.3 0.00 0.00 0.00 75 1014.6
20260905142737 84 192 1.7 4.3 0.00 0.00 0.00 76 1014.5
20260905142238 84 175 0.9 3.5 0.00 0.00 0.00 76 1014.5
20260905141737 83 182 0.9 1.7 0.00 0.00 0.00 77 1014.5
20260905141237 83 172 0.9 3.5 0.00 0.00 0.00 78 1014.5
20260905140738 82 162 0.9 3.5 0.00 0.00 0.00 79 1014.5
20260905140238 82 154 0.9 2.6 0.00 0.00 0.00 80 1014.6
20260905135737 81 171 0.9 2.6 0.00 0.00 0.00 81 1014.5
20260905135238 81 160 0.9 2.6 0.00 0.00 0.00 82 1014.5
20260905134737 80 149 0.9 2.6 0.00 0.00 0.00 83 1014.3
20260905134239 80 158 0.9 2.6 0.00 0.00 0.00 84 1014.3
20260905133737 79 177 0.9 1.7 0.00 0.00 0.00 84 1014.3
20260905133238 79 173 0.9 1.7 0.00 0.00 0.00 85 1014.3
20260905132739 78 166 0.9 1.7 0.00 0.00 0.00 86 1014.4
20260905132238 78 144 0.9 0.9 0.00 0.00 0.00 86 1014.4
20260905131738 78 128 0.9 1.7 0.00 0.00 0.00 87 1014.4
20260905131239 77 117 0.9 1.7 0.00 0.00 0.00 89 1014.4
20260905130739 76 108 0.9 1.7 0.00 0.00 0.00 90 1014.4
20260905130238 76 0 0.0 0.9 0.00 0.00 0.00 92 1014.4
20260905125237 74 0 0.0 0.0 0.00 0.00 0.00 92 1014.1
20260905124738 74 0 0.0 0.0 0.00 0.00 0.00 92 1014.1
20260905124237 74 0 0.0 0.9 0.00 0.00 0.00 91 1014.0
20260905123738 74 0 0.0 0.9 0.00 0.00 0.00 91 1014.0
20260905123238 74 0 0.0 0.0 0.00 0.00 0.00 91 1013.9
20260905122737 74 0 0.0 0.0 0.00 0.00 0.00 91 1013.9
20260905121737 74 0 0.0 0.0 0.00 0.00 0.00 91 1013.8
20260905121238 74 0 0.0 0.0 0.00 0.00 0.00 91 1013.7
20260905120738 74 0 0.0 0.0 0.00 0.00 0.00 90 1013.6
20260905114237 74 0 0.0 0.0 0.00 0.00 0.00 90 1013.4
20260905113738 74 0 0.0 0.0 0.00 0.00 0.00 89 1013.3
20260905113237 75 0 0.0 0.0 0.00 0.00 0.00 88 1013.3
20260905111738 75 0 0.0 0.0 0.00 0.00 0.00 88 1013.1
20260905111238 75 0 0.0 0.0 0.00 0.00 0.00 88 1013.2
20260905105737 75 0 0.0 0.0 0.00 0.00 0.00 88 1013.4
20260905105238 75 0 0.0 0.0 0.00 0.00 0.00 88 1013.4
20260905104737 75 0 0.0 0.0 0.00 0.00 0.00 86 1013.3
20260905104237 76 0 0.0 0.0 0.00 0.00 0.00 86 1013.3
20260905103737 76 0 0.0 0.0 0.00 0.00 0.00 86 1013.4
20260905103238 76 0 0.0 0.0 0.00 0.00 0.00 85 1013.3
20260905102737 76 0 0.0 0.0 0.00 0.00 0.00 85 1013.4
20260905102238 76 0 0.0 0.0 0.00 0.00 0.00 85 1013.5
20260905101237 77 0 0.0 0.0 0.00 0.00 0.00 85 1013.4
20260905100738 76 0 0.0 0.0 0.00 0.00 0.00 86 1013.3
20260905100238 76 0 0.0 0.0 0.00 0.00 0.00 86 1013.3
20260905095738 76 0 0.0 0.0 0.00 0.00 0.00 86 1013.3
20260905095238 76 0 0.0 0.0 0.00 0.00 0.00 85 1013.4
20260905094737 77 0 0.0 0.0 0.00 0.00 0.00 84 1013.2
20260905094237 77 0 0.0 0.0 0.00 0.00 0.00 84 1013.3
20260905093738 77 0 0.0 0.0 0.00 0.00 0.00 83 1013.2
20260905093238 77 0 0.0 0.0 0.00 0.00 0.00 83 1013.1
20260905092737 77 0 0.0 0.9 0.00 0.00 0.00 84 1013.1
20260905092238 77 0 0.0 0.9 0.00 0.00 0.00 84 1013.2
20260905091739 77 0 0.0 1.7 0.00 0.00 0.00 84 1013.2
20260905091239 77 0 0.0 1.7 0.00 0.00 0.00 84 1013.2
20260905090738 77 0 0.0 0.9 0.00 0.00 0.00 83 1013.2
20260905085738 77 0 0.0 1.7 0.00 0.00 0.00 83 1013.0
20260905085238 78 0 0.0 0.9 0.00 0.00 0.00 83 1013.2
20260905084238 78 0 0.0 0.9 0.00 0.00 0.00 83 1013.1
20260905083238 77 0 0.0 0.9 0.00 0.00 0.00 83 1012.9
20260905082739 78 0 0.0 0.9 0.00 0.00 0.00 82 1012.9
20260905081738 78 169 0.9 2.6 0.00 0.00 0.00 81 1013.0
20260905080738 78 182 0.9 1.7 0.00 0.00 0.00 80 1013.1
20260905080237 79 0 0.0 1.7 0.00 0.00 0.00 80 1013.0
20260905075238 79 0 0.0 0.9 0.00 0.00 0.00 80 1013.1
20260905074737 79 0 0.0 0.9 0.00 0.00 0.00 80 1013.2
20260905073738 79 0 0.0 0.9 0.00 0.00 0.00 80 1013.3
20260905073238 79 0 0.0 0.9 0.00 0.00 0.00 80 1013.3
20260905072738 79 0 0.0 0.0 0.00 0.00 0.00 79 1013.3
20260905072238 79 0 0.0 0.0 0.00 0.00 0.00 79 1013.3
20260905071238 79 0 0.0 0.9 0.00 0.00 0.00 78 1013.4
20260905070738 79 0 0.0 0.9 0.00 0.00 0.00 78 1013.4
20260905070239 79 0 0.0 0.9 0.00 0.00 0.00 78 1013.3
20260905065738 79 0 0.0 0.9 0.00 0.00 0.00 78 1013.3
20260905065238 80 0 0.0 0.9 0.00 0.00 0.00 78 1013.3
20260905064738 80 0 0.0 0.9 0.00 0.00 0.00 77 1013.4
20260905064238 80 0 0.0 0.9 0.00 0.00 0.00 77 1013.5
20260905063738 80 0 0.0 0.9 0.00 0.00 0.00 77 1013.6
20260905063237 80 0 0.0 0.9 0.00 0.00 0.00 77 1013.6
20260905062237 80 0 0.0 1.7 0.00 0.00 0.00 76 1013.6
20260905060738 81 168 0.9 2.6 0.00 0.00 0.00 75 1013.4
20260905060238 81 0 0.0 1.7 0.00 0.00 0.00 75 1013.3
20260905055738 81 0 0.0 0.9 0.00 0.00 0.00 75 1013.3
20260905055239 81 0 0.0 0.9 0.00 0.00 0.00 75 1013.3
20260905054738 81 173 0.9 1.7 0.00 0.00 0.00 74 1013.4
20260905054239 81 176 0.9 1.7 0.00 0.00 0.00 74 1013.4
20260905053738 82 181 0.9 1.7 0.00 0.00 0.00 74 1013.5
20260905053238 82 178 0.9 1.7 0.00 0.00 0.00 73 1013.3
20260905052738 82 172 0.9 1.7 0.00 0.00 0.00 73 1013.3
20260905052238 82 169 0.9 1.7 0.00 0.00 0.00 73 1013.4
20260905051737 82 166 0.9 3.5 0.00 0.00 0.00 73 1013.3
20260905051238 82 165 0.9 3.5 0.00 0.00 0.00 73 1013.3
20260905050237 82 0 0.0 0.9 0.00 0.00 0.00 73 1013.2
20260905045740 82 0 0.0 1.7 0.00 0.00 0.00 72 1013.3
20260905044738 82 0 0.0 0.9 0.00 0.00 0.00 71 1013.4
20260905044240 82 0 0.0 0.9 0.00 0.00 0.00 71 1013.4
20260905043738 82 0 0.0 0.9 0.00 0.00 0.00 71 1013.4
20260905043239 83 0 0.0 0.9 0.00 0.00 0.00 71 1013.4
20260905042738 83 0 0.0 0.9 0.00 0.00 0.00 70 1013.3
20260905042238 83 162 0.9 1.7 0.00 0.00 0.00 70 1013.4
20260905041739 83 159 0.9 1.7 0.00 0.00 0.00 70 1013.4
20260905041239 83 159 0.9 1.7 0.00 0.00 0.00 69 1013.4
20260905040738 83 161 0.9 2.6 0.00 0.00 0.00 69 1013.4
20260905035738 84 178 0.9 1.7 0.00 0.00 0.00 68 1013.3
20260905035238 84 170 0.9 1.7 0.00 0.00 0.00 68 1013.4
20260905034739 84 163 0.9 2.6 0.00 0.00 0.00 67 1013.4
20260905034238 84 163 0.9 2.6 0.00 0.00 0.00 67 1013.4
20260905033738 84 169 0.9 1.7 0.00 0.00 0.00 67 1013.4
20260905033238 84 179 0.9 2.6 0.00 0.00 0.00 66 1013.4
20260905032739 84 181 0.9 2.6 0.00 0.00 0.00 66 1013.3
20260905032237 85 173 0.9 1.7 0.00 0.00 0.00 65 1013.3
20260905031738 85 167 0.9 1.7 0.00 0.00 0.00 65 1013.4
20260905031238 85 0 0.0 1.7 0.00 0.00 0.00 64 1013.4
20260905030738 85 166 0.9 0.9 0.00 0.00 0.00 64 1013.3
20260905025739 85 170 0.9 1.7 0.00 0.00 0.00 63 1013.1
20260905025238 86 177 0.9 1.7 0.00 0.00 0.00 63 1013.1
20260905024738 86 183 0.9 2.6 0.00 0.00 0.00 63 1013.0
20260905024238 86 178 0.9 2.6 0.00 0.00 0.00 63 1013.1
20260905023739 86 178 0.9 2.6 0.00 0.00 0.00 62 1013.0
20260905023238 86 177 0.9 1.7 0.00 0.00 0.00 62 1012.9
20260905021238 87 159 1.7 4.3 0.00 0.00 0.00 61 1012.5
20260905020738 87 159 1.7 4.3 0.00 0.00 0.00 61 1012.5
20260905020238 88 161 0.9 3.5 0.00 0.00 0.00 60 1012.5
20260905015738 88 164 1.7 3.5 0.00 0.00 0.00 60 1012.4
20260905015238 88 161 1.7 4.3 0.00 0.00 0.00 61 1012.3
20260905014238 88 154 1.7 4.3 0.00 0.00 0.00 61 1012.2
20260905012738 88 162 2.6 6.1 0.00 0.00 0.00 60 1012.1
20260905012238 89 161 3.5 6.1 0.00 0.00 0.00 60 1012.0
20260905011738 89 160 3.5 6.1 0.00 0.00 0.00 59 1012.0
20260905010239 90 164 3.5 7.8 0.00 0.00 0.00 58 1011.8
20260905005738 90 160 4.3 7.8 0.00 0.00 0.00 57 1011.6
20260905005239 90 157 3.5 7.8 0.00 0.00 0.00 55 1011.6
20260905004738 91 154 3.5 7.0 0.00 0.00 0.00 54 1011.5
20260905004240 91 152 3.5 7.0 0.00 0.00 0.00 52 1011.4
20260905003238 91 152 3.5 7.8 0.00 0.00 0.00 51 1011.3
20260905002238 92 154 3.5 8.7 0.00 0.00 0.00 51 1011.3
20260905001738 92 154 3.5 8.7 0.00 0.00 0.00 50 1011.2
20260905001238 93 153 3.5 7.0 0.00 0.00 0.00 49 1011.1
20260905000738 93 152 3.5 6.1 0.00 0.00 0.00 48 1011.0
20260905000241 94 153 2.6 6.1 0.00 0.00 0.00 46 1011.0
20260904235738 94 157 2.6 7.0 0.00 0.00 0.00 46 1011.0
20260904235239 94 158 2.6 7.0 0.00 0.00 0.00 45 1011.0
20260904234739 95 158 2.6 4.3 0.00 0.00 0.00 45 1011.0
20260904233739 95 152 2.6 5.2 0.00 0.00 0.00 42 1011.0
20260904233238 96 149 2.6 5.2 0.00 0.00 0.00 41 1010.9
20260904232238 96 152 2.6 6.1 0.00 0.00 0.00 41 1010.8
20260904231238 96 154 2.6 7.0 0.00 0.00 0.00 41 1010.8
20260904230738 96 153 3.5 7.8 0.00 0.00 0.00 41 1010.9
20260904230238 96 154 3.5 7.8 0.00 0.00 0.00 41 1010.8
20260904225738 96 156 3.5 6.1 0.00 0.00 0.00 41 1010.8
20260904224239 96 160 2.6 6.1 0.00 0.00 0.00 41 1010.9
20260904223740 97 163 2.6 6.1 0.00 0.00 0.00 42 1011.0
20260904223238 97 162 3.5 7.0 0.00 0.00 0.00 42 1011.0
20260904222739 96 157 3.5 7.8 0.00 0.00 0.00 42 1011.1
20260904222239 97 156 4.3 9.6 0.00 0.00 0.00 42 1011.1
20260904221738 97 154 3.5 9.6 0.00 0.00 0.00 41 1011.0
20260904221239 98 150 3.5 7.0 0.00 0.00 0.00 41 1011.0
20260904220738 97 148 2.6 7.0 0.00 0.00 0.00 41 1011.1